"Pseudo-MPEC" for or02157

Created 2023 Feb 3 20:22:13 UT using Find_Orb

Click here for an explanation of pseudo-MPECs

 
 Astrometry: 
     or02157*KC2023 01 25B_Astrometryl!`3\-,w#67'o:.^voBredacted;fQUnr#jWpkr)J43
     or02157 KC2023 01 25'xclickkbRw_04P7)DFGhere\Bq%bZ0N^for+.FW7M0(5bZNLnYdJ43
     or02157 KC2023 01 25Q#dS`,$?HexplanationyYT7Y9EYK7a[sPwS%J!84S;x`U^dt,jNJ43

Station data:
(J43) Oukaïmeden Observatory, Marrakech  (N31.206437 W7.866460)  Morocco.
   Observer C. Rinner. Measurers C. Rinner, M. Ory. 0.5-m f/3 reflector + CCD.

Orbital elements:  or02157
   Perihelion 2022 Aug 26.17545 +/- 92.9 TT =  4:12:39 (JD 2459817.67545)
Epoch 2023 Jan 25.0 TT = JDT 2459969.5   Earth MOID: 0.0144   Ve: 0.0381
M 175.19453893 +/- 120              (J2000 ecliptic)             AutoNEOCP
n   1.15392761 +/- 0.659            Peri.  203.84401 +/- 70
a   0.90022348 +/- 0.343            Node   105.98916 +/- 70
e   0.1577672 +/- 0.22              Incl.    2.24090 +/- 56
P   0.85/311.97d           H 26.56  G  0.15   U 12.5  SR
q 0.75819773 +/- 0.485    Q 1.04224923 +/- 13.7
From 3 observations 2023 Jan. 25 (21.9 min); mean residual 0".09
Residuals in arcseconds: 
230125 J43  .08+  .04+    230125 J43  .16-  .08-    230125 J43  .08+  .04+    

Ephemerides (geocentric):
Date (UTC) HH   RA             Dec           delta  r     elong  mag " sig PA
---- --------  ------------   ------------  ------ ------ -----  --- --------
2023 02 03 20  09 52 58.930   +33 24 50.11  .05921 1.0415 160.2 21.5  48d 164
2023 02 03 21  09 52 40.827   +33 28 05.60  .05919 1.0415 160.2 21.5  48d 164
2023 02 03 22  09 52 22.688   +33 31 20.95  .05918 1.0415 160.2 21.5  48d 164
2023 02 03 23  09 52 04.512   +33 34 36.17  .05916 1.0415 160.2 21.5  48d 164
2023 02 04 00  09 51 46.300   +33 37 51.25  .05914 1.0415 160.2 21.5  48d 164
2023 02 04 01  09 51 28.050   +33 41 06.20  .05913 1.0415 160.2 21.5  48d 164
2023 02 04 02  09 51 09.764   +33 44 21.00  .05911 1.0415 160.2 21.5  48d 164
2023 02 04 03  09 50 51.442   +33 47 35.66  .05910 1.0415 160.2 21.5  48d 164
2023 02 04 04  09 50 33.082   +33 50 50.17  .05908 1.0415 160.2 21.5  48d 164
2023 02 04 05  09 50 14.687   +33 54 04.53  .05907 1.0415 160.2 21.5  48d 164
2023 02 04 06  09 49 56.254   +33 57 18.74  .05905 1.0414 160.2 21.5  48d 164
2023 02 04 07  09 49 37.785   +34 00 32.80  .05903 1.0414 160.2 21.5  48d 164
2023 02 04 08  09 49 19.280   +34 03 46.70  .05902 1.0414 160.2 21.5  48d 164
2023 02 04 09  09 49 00.739   +34 07 00.44  .05900 1.0414 160.2 21.5  48d 164
2023 02 04 10  09 48 42.161   +34 10 14.02  .05899 1.0414 160.1 21.5  48d 164
2023 02 04 11  09 48 23.547   +34 13 27.44  .05898 1.0414 160.1 21.5  48d 164
2023 02 04 12  09 48 04.897   +34 16 40.70  .05896 1.0414 160.1 21.5  49d 164
2023 02 04 13  09 47 46.210   +34 19 53.78  .05895 1.0414 160.1 21.5  49d 164
2023 02 04 14  09 47 27.488   +34 23 06.70  .05893 1.0414 160.1 21.5  49d 163
2023 02 04 15  09 47 08.729   +34 26 19.45  .05892 1.0413 160.1 21.5  49d 163
2023 02 04 16  09 46 49.934   +34 29 32.02  .05891 1.0413 160.1 21.5  49d 163
2023 02 04 17  09 46 31.104   +34 32 44.41  .05889 1.0413 160.0 21.5  49d 163
2023 02 04 18  09 46 12.237   +34 35 56.63  .05888 1.0413 160.0 21.5  49d 163
2023 02 04 19  09 45 53.335   +34 39 08.67  .05887 1.0413 160.0 21.5  49d 163
2023 02 04 20  09 45 34.397   +34 42 20.52  .05885 1.0413 160.0 21.5  49d 163
2023 02 04 21  09 45 15.423   +34 45 32.18  .05884 1.0413 160.0 21.5  49d 163
2023 02 04 22  09 44 56.414   +34 48 43.66  .05883 1.0413 160.0 21.5  49d 163
2023 02 04 23  09 44 37.369   +34 51 54.95  .05882 1.0412 159.9 21.5  49d 163
2023 02 05 00  09 44 18.289   +34 55 06.04  .05880 1.0412 159.9 21.5  49d 163
2023 02 05 01  09 43 59.173   +34 58 16.94  .05879 1.0412 159.9 21.5  49d 163
2023 02 05 02  09 43 40.021   +35 01 27.64  .05878 1.0412 159.9 21.5  49d 163
2023 02 05 03  09 43 20.835   +35 04 38.15  .05877 1.0412 159.8 21.5  49d 163
2023 02 05 04  09 43 01.613   +35 07 48.45  .05876 1.0412 159.8 21.5  49d 163
2023 02 05 05  09 42 42.356   +35 10 58.54  .05875 1.0412 159.8 21.5  49d 163
2023 02 05 06  09 42 23.064   +35 14 08.43  .05873 1.0412 159.8 21.5  49d 163
2023 02 05 07  09 42 03.736   +35 17 18.12  .05872 1.0411 159.7 21.5  49d 163
2023 02 05 08  09 41 44.374   +35 20 27.59  .05871 1.0411 159.7 21.5  49d 163
2023 02 05 09  09 41 24.977   +35 23 36.84  .05870 1.0411 159.7 21.5  49d 163
2023 02 05 10  09 41 05.545   +35 26 45.88  .05869 1.0411 159.7 21.5  49d 163
2023 02 05 11  09 40 46.078   +35 29 54.71  .05868 1.0411 159.6 21.5  49d 163
2023 02 05 12  09 40 26.576   +35 33 03.31  .05867 1.0411 159.6 21.5  49d 163
2023 02 05 13  09 40 07.040   +35 36 11.69  .05866 1.0411 159.6 21.5  49d 162
2023 02 05 14  09 39 47.470   +35 39 19.85  .05865 1.0411 159.5 21.5  49d 162
2023 02 05 15  09 39 27.864   +35 42 27.78  .05864 1.0410 159.5 21.5  49d 162
2023 02 05 16  09 39 08.225   +35 45 35.48  .05863 1.0410 159.5 21.5  49d 162
2023 02 05 17  09 38 48.551   +35 48 42.94  .05862 1.0410 159.4 21.5  49d 162
2023 02 05 18  09 38 28.843   +35 51 50.18  .05861 1.0410 159.4 21.5  49d 162
2023 02 05 19  09 38 09.101   +35 54 57.18  .05860 1.0410 159.4 21.5  49d 162